Time,TemperatureF,DewpointF,PressureIn,WindDirection,WindDirectionDegrees,WindSpeedMPH,WindSpeedGustMPH,Humidity,HourlyPrecipIn,Conditions,Clouds,dailyrainin,SoftwareType,DateUTC
2013-07-05 00:01:00,69.0,45.0,-100.00,ENE,75,11.0,12.0,42,-99.99,,,-99.99,,2013-07-05 00:01:00,
2013-07-05 00:11:00,69.0,44.0,-100.00,NE,55,9.0,12.0,40,-99.99,,,-99.99,,2013-07-05 00:11:00,
2013-07-05 00:43:00,63.0,46.0,-100.00,West,260,7.0,16.0,52,-99.99,,,-99.99,,2013-07-05 00:43:00,
2013-07-05 00:52:00,63.0,48.0,-100.00,SE,130,4.0,5.0,58,-99.99,,,-99.99,,2013-07-05 00:52:00,
2013-07-05 01:01:00,63.0,50.0,-100.00,SSE,160,7.0,9.0,62,-99.99,,,-99.99,,2013-07-05 01:01:00,
2013-07-05 01:11:00,63.0,51.0,-100.00,SSE,155,7.0,12.0,62,-99.99,,,-99.99,,2013-07-05 01:11:00,
2013-07-05 01:22:00,64.0,50.0,-100.00,SE,130,7.0,12.0,61,-99.99,,,-99.99,,2013-07-05 01:22:00,
2013-07-05 01:32:00,64.0,48.0,-100.00,ESE,115,9.0,11.0,55,-99.99,,,-99.99,,2013-07-05 01:32:00,
2013-07-05 01:42:00,64.0,49.0,-100.00,ESE,110,6.0,11.0,57,-99.99,,,-99.99,,2013-07-05 01:42:00,
2013-07-05 01:52:00,65.0,49.0,-100.00,ESE,120,9.0,12.0,56,-99.99,,,-99.99,,2013-07-05 01:52:00,
2013-07-05 02:02:00,63.0,49.0,-100.00,SSE,160,11.0,14.0,59,-99.99,,,-99.99,,2013-07-05 02:02:00,
2013-07-05 02:11:00,63.0,48.0,-100.00,SSE,165,10.0,15.0,57,-99.99,,,-99.99,,2013-07-05 02:11:00,
2013-07-05 02:21:00,63.0,48.0,-100.00,South,180,9.0,13.0,59,-99.99,,,-99.99,,2013-07-05 02:21:00,
2013-07-05 02:32:00,63.0,49.0,-100.00,SSW,210,7.0,12.0,60,-99.99,,,-99.99,,2013-07-05 02:32:00,
2013-07-05 02:42:00,62.0,50.0,-100.00,SSW,205,8.0,11.0,63,-99.99,,,-99.99,,2013-07-05 02:42:00,
2013-07-05 02:52:00,62.0,51.0,-100.00,South,190,7.0,11.0,66,-99.99,,,-99.99,,2013-07-05 02:52:00,
2013-07-05 03:02:00,62.0,51.0,-100.00,South,180,6.0,10.0,66,-99.99,,,-99.99,,2013-07-05 03:02:00,
2013-07-05 03:11:00,61.0,52.0,-100.00,SE,145,8.0,10.0,71,-99.99,,,-99.99,,2013-07-05 03:11:00,
2013-07-05 03:22:00,61.0,52.0,-100.00,South,170,9.0,11.0,73,-99.99,,,-99.99,,2013-07-05 03:22:00,
2013-07-05 03:32:00,60.0,52.0,-100.00,SSE,165,9.0,11.0,74,-99.99,,,-99.99,,2013-07-05 03:32:00,
2013-07-05 03:42:00,60.0,52.0,-100.00,South,180,8.0,11.0,73,-99.99,,,-99.99,,2013-07-05 03:42:00,
2013-07-05 03:51:00,60.0,52.0,-100.00,SSE,150,6.0,9.0,75,-99.99,,,-99.99,,2013-07-05 03:51:00,
2013-07-05 04:01:00,60.0,51.0,-100.00,SE,130,6.0,9.0,73,-99.99,,,-99.99,,2013-07-05 04:01:00,
2013-07-05 04:11:00,60.0,51.0,-100.00,ESE,120,1.0,8.0,71,-99.99,,,-99.99,,2013-07-05 04:11:00,
2013-07-05 04:22:00,60.0,51.0,-100.00,NNW,340,4.0,6.0,71,-99.99,,,-99.99,,2013-07-05 04:22:00,
2013-07-05 04:33:00,61.0,49.0,-100.00,South,175,2.0,4.0,64,-99.99,,,-99.99,,2013-07-05 04:33:00,
2013-07-05 04:43:00,60.0,49.0,-100.00,ESE,120,1.0,3.0,67,-99.99,,,-99.99,,2013-07-05 04:43:00,
2013-07-05 04:53:00,60.0,50.0,-100.00,East,95,6.0,6.0,70,-99.99,,,-99.99,,2013-07-05 04:53:00,
2013-07-05 05:01:00,60.0,51.0,-100.00,East,100,5.0,6.0,71,-99.99,,,-99.99,,2013-07-05 05:01:00,
2013-07-05 05:12:00,60.0,49.0,-100.00,ENE,65,6.0,6.0,67,-99.99,,,-99.99,,2013-07-05 05:12:00,
2013-07-05 05:21:00,60.0,51.0,-100.00,East,90,7.0,8.0,70,-99.99,,,-99.99,,2013-07-05 05:21:00,
2013-07-05 05:33:00,60.0,52.0,-100.00,NE,45,4.0,6.0,75,-99.99,,,-99.99,,2013-07-05 05:33:00,
2013-07-05 05:43:00,60.0,51.0,-100.00,ENE,60,6.0,6.0,74,-99.99,,,-99.99,,2013-07-05 05:43:00,
2013-07-05 05:52:00,60.0,48.0,-100.00,North,355,4.0,7.0,63,-99.99,,,-99.99,,2013-07-05 05:52:00,
2013-07-05 06:02:00,60.0,47.0,-100.00,NNE,25,3.0,7.0,61,-99.99,,,-99.99,,2013-07-05 06:02:00,
2013-07-05 06:13:00,61.0,47.0,-100.00,NNW,335,6.0,6.0,61,-99.99,,,-99.99,,2013-07-05 06:13:00,
2013-07-05 06:34:00,59.0,49.0,-100.00,West,270,5.0,7.0,68,-99.99,,,-99.99,,2013-07-05 06:34:00,
2013-07-05 06:43:00,59.0,49.0,-100.00,West,280,5.0,7.0,70,-99.99,,,-99.99,,2013-07-05 06:43:00,
2013-07-05 07:02:00,58.0,49.0,-100.00,WNW,285,6.0,8.0,71,-99.99,,,-99.99,,2013-07-05 07:02:00,
2013-07-05 07:12:00,58.0,49.0,-100.00,NW,305,7.0,9.0,72,-99.99,,,-99.99,,2013-07-05 07:12:00,
2013-07-05 07:43:00,58.0,49.0,-100.00,SSW,195,4.0,5.0,73,-99.99,,,-99.99,,2013-07-05 07:43:00,
2013-07-05 07:53:00,57.0,49.0,-100.00,West,270,1.0,4.0,75,-99.99,,,-99.99,,2013-07-05 07:53:00,
2013-07-05 08:02:00,57.0,49.0,-100.00,West,270,4.0,4.0,75,-99.99,,,-99.99,,2013-07-05 08:02:00,
2013-07-05 08:12:00,58.0,48.0,-100.00,WSW,255,2.0,6.0,70,-99.99,,,-99.99,,2013-07-05 08:12:00,
2013-07-05 08:43:00,55.0,48.0,-100.00,SSE,150,6.0,7.0,75,-99.99,,,-99.99,,2013-07-05 08:43:00,
2013-07-05 09:06:00,53.0,48.0,-100.00,ESE,115,6.0,7.0,82,-99.99,,,-99.99,,2013-07-05 09:06:00,
2013-07-05 09:14:00,53.0,48.0,-100.00,SE,125,4.0,6.0,83,-99.99,,,-99.99,,2013-07-05 09:14:00,
2013-07-05 09:24:00,53.0,48.0,-100.00,SSW,195,4.0,6.0,83,-99.99,,,-99.99,,2013-07-05 09:24:00,
2013-07-05 09:37:00,54.0,47.0,-100.00,SSW,210,9.0,10.0,77,-99.99,,,-99.99,,2013-07-05 09:37:00,
2013-07-05 09:53:00,54.0,47.0,-100.00,South,180,8.0,11.0,77,-99.99,,,-99.99,,2013-07-05 09:53:00,
2013-07-05 10:46:00,54.0,48.0,-100.00,SSW,210,9.0,11.0,79,-99.99,,,-99.99,,2013-07-05 10:46:00,
2013-07-05 11:06:00,55.0,47.0,-100.00,SSW,200,10.0,12.0,72,-99.99,,,-99.99,,2013-07-05 11:06:00,
2013-07-05 11:15:00,56.0,46.0,-100.00,SSW,195,9.0,13.0,69,-99.99,,,-99.99,,2013-07-05 11:15:00,
2013-07-05 11:37:00,53.0,47.0,-100.00,East,100,4.0,7.0,77,-99.99,,,-99.99,,2013-07-05 11:37:00,
2013-07-05 11:45:00,54.0,47.0,-100.00,SE,140,7.0,10.0,75,-99.99,,,-99.99,,2013-07-05 11:45:00,
2013-07-05 12:06:00,54.0,47.0,-100.00,SE,145,11.0,15.0,75,-99.99,,,-99.99,,2013-07-05 12:06:00,
2013-07-05 12:45:00,54.0,48.0,-100.00,ESE,120,11.0,12.0,79,-99.99,,,-99.99,,2013-07-05 12:45:00,
2013-07-05 12:54:00,54.0,47.0,-100.00,ESE,110,9.0,12.0,77,-99.99,,,-99.99,,2013-07-05 12:54:00,
2013-07-05 13:05:00,55.0,47.0,-100.00,ESE,120,7.0,11.0,75,-99.99,,,-99.99,,2013-07-05 13:05:00,
2013-07-05 15:05:00,64.0,47.0,-100.00,NW,305,6.0,7.0,53,-99.99,,,-99.99,,2013-07-05 15:05:00,
2013-07-05 15:43:00,69.0,45.0,-100.00,West,280,3.0,6.0,43,-99.99,,,-99.99,,2013-07-05 15:43:00,
2013-07-05 16:01:00,68.0,45.0,-100.00,NW,310,4.0,6.0,42,-99.99,,,-99.99,,2013-07-05 16:01:00,
2013-07-05 16:11:00,67.0,45.0,-100.00,North,355,7.0,9.0,44,-99.99,,,-99.99,,2013-07-05 16:11:00,
2013-07-05 17:02:00,72.0,43.0,-100.00,NW,325,2.0,8.0,35,-99.99,,,-99.99,,2013-07-05 17:02:00,
2013-07-05 17:53:00,76.0,42.0,-100.00,WSW,255,6.0,12.0,30,-99.99,,,-99.99,,2013-07-05 17:53:00,
2013-07-05 18:11:00,73.0,41.0,-100.00,WNW,295,4.0,7.0,31,-99.99,,,-99.99,,2013-07-05 18:11:00,
2013-07-05 18:43:00,76.0,40.0,-100.00,WNW,285,1.0,6.0,27,-99.99,,,-99.99,,2013-07-05 18:43:00,
2013-07-05 19:01:00,78.0,39.0,-100.00,West,275,0.0,4.0,24,-99.99,,,-99.99,,2013-07-05 19:01:00,
2013-07-05 19:42:00,79.0,39.0,-100.00,SSE,165,7.0,11.0,23,-99.99,,,-99.99,,2013-07-05 19:42:00,
2013-07-05 20:43:00,80.0,38.0,-100.00,SSW,210,1.0,12.0,21,-99.99,,,-99.99,,2013-07-05 20:43:00,
2013-07-05 21:01:00,80.0,40.0,-100.00,SSE,165,9.0,13.0,24,-99.99,,,-99.99,,2013-07-05 21:01:00,
2013-07-05 21:11:00,78.0,39.0,-100.00,SSE,150,11.0,17.0,24,-99.99,,,-99.99,,2013-07-05 21:11:00,
2013-07-05 22:01:00,81.0,38.0,-100.00,East,100,4.0,14.0,21,-99.99,,,-99.99,,2013-07-05 22:01:00,
2013-07-05 22:11:00,83.0,39.0,-100.00,SW,215,8.0,13.0,21,-99.99,,,-99.99,,2013-07-05 22:11:00,
2013-07-05 22:43:00,80.0,35.0,-100.00,SSE,150,4.0,13.0,19,-99.99,,,-99.99,,2013-07-05 22:43:00,
2013-07-05 23:02:00,75.0,39.0,-100.00,WSW,255,11.0,16.0,26,-99.99,,,-99.99,,2013-07-05 23:02:00,
2013-07-05 23:11:00,79.0,40.0,-100.00,WSW,250,19.0,24.0,24,-99.99,,,-99.99,,2013-07-05 23:11:00,
2013-07-05 23:32:00,80.0,38.0,-100.00,WSW,255,16.0,24.0,22,-99.99,,,-99.99,,2013-07-05 23:32:00,
2013-07-05 23:43:00,81.0,38.0,-100.00,West,260,14.0,23.0,21,-99.99,,,-99.99,,2013-07-05 23:43:00,